| time (UTC) | temp F | wind direction | speed MPH | gust MPH | rain 1hr in | rain 24hr in | rain mn in | humidity % | barometer mb |
| 20260502140129 | 46 | 70 | 1.0 | 15.0 | 0.00 | 0.00 | 0.00 | 50 | 1015.5 |
| 20260502130554 | 43 | 50 | 2.0 | 4.0 | 0.00 | 0.00 | 0.00 | 63 | 1015.5 |
| 20260502123538 | 42 | 258 | 2.0 | 3.0 | 0.00 | 0.00 | 0.00 | 66 | 1015.7 |
| 20260502123034 | 41 | 61 | 4.0 | 6.0 | 0.00 | 0.00 | 0.00 | 70 | 1015.5 |
| 20260502122531 | 41 | 60 | 0.0 | 1.0 | 0.00 | 0.00 | 0.00 | 73 | 1015.4 |
| 20260502122028 | 41 | 34 | 2.0 | 2.0 | 0.00 | 0.00 | 0.00 | 71 | 1015.5 |
| 20260502121525 | 41 | 39 | 2.0 | 3.0 | 0.00 | 0.00 | 0.00 | 69 | 1015.5 |
| 20260502121023 | 41 | 343 | 4.0 | 6.0 | 0.00 | 0.00 | 0.00 | 69 | 1015.6 |
| 20260502120519 | 41 | 40 | 0.0 | 3.0 | 0.00 | 0.00 | 0.00 | 68 | 1015.6 |
| 20260502115513 | 40 | 297 | 1.0 | 1.0 | 0.00 | 0.00 | 0.00 | 71 | 1015.5 |
| 20260502115009 | 40 | 251 | 1.0 | 3.0 | 0.00 | 0.00 | 0.00 | 73 | 1015.5 |
| 20260502114506 | 40 | 240 | 2.0 | 3.0 | 0.00 | 0.00 | 0.00 | 71 | 1015.5 |
| 20260502114003 | 39 | 284 | 2.0 | 4.0 | 0.00 | 0.00 | 0.00 | 74 | 1015.5 |
| 20260502113500 | 39 | 267 | 2.0 | 3.0 | 0.00 | 0.00 | 0.00 | 77 | 1015.5 |
| 20260502112959 | 38 | 248 | 2.0 | 3.0 | 0.00 | 0.00 | 0.00 | 81 | 1015.4 |
| 20260502112456 | 38 | 243 | 1.0 | 3.0 | 0.00 | 0.00 | 0.00 | 79 | 1015.6 |
| 20260502111954 | 38 | 253 | 1.0 | 3.0 | 0.00 | 0.00 | 0.00 | 81 | 1015.5 |
| 20260502111451 | 37 | 263 | 2.0 | 3.0 | 0.00 | 0.00 | 0.00 | 83 | 1015.3 |
| 20260502110948 | 37 | 252 | 1.0 | 1.0 | 0.00 | 0.00 | 0.00 | 83 | 1015.3 |
| 20260502110446 | 37 | 249 | 2.0 | 2.0 | 0.00 | 0.00 | 0.00 | 81 | 1015.3 |
| 20260502105943 | 37 | 249 | 1.0 | 1.0 | 0.00 | 0.00 | 0.00 | 83 | 1015.6 |
| 20260502105440 | 37 | 256 | 1.0 | 1.0 | 0.00 | 0.00 | 0.00 | 85 | 1015.5 |
| 20260502104938 | 37 | 258 | 1.0 | 1.0 | 0.00 | 0.00 | 0.00 | 84 | 1015.5 |
| 20260502104435 | 37 | 269 | 2.0 | 2.0 | 0.00 | 0.00 | 0.00 | 83 | 1015.6 |
| 20260502103932 | 37 | 269 | 1.0 | 2.0 | 0.00 | 0.00 | 0.00 | 83 | 1015.5 |
| 20260502103430 | 37 | 263 | 1.0 | 1.0 | 0.00 | 0.00 | 0.00 | 84 | 1015.5 |
| 20260502102927 | 37 | 262 | 0.0 | 2.0 | 0.00 | 0.00 | 0.00 | 80 | 1015.4 |
| 20260502102423 | 37 | 249 | 2.0 | 3.0 | 0.00 | 0.00 | 0.00 | 81 | 1015.6 |
| 20260502101920 | 37 | 250 | 1.0 | 1.0 | 0.00 | 0.00 | 0.00 | 83 | 1015.5 |
| 20260502101419 | 37 | 250 | 0.0 | 2.0 | 0.00 | 0.00 | 0.00 | 81 | 1015.6 |
| 20260502100917 | 37 | 251 | 2.0 | 3.0 | 0.00 | 0.00 | 0.00 | 82 | 1015.7 |
| 20260502100416 | 37 | 270 | 1.0 | 1.0 | 0.00 | 0.00 | 0.00 | 86 | 1015.8 |
| 20260502091349 | 38 | 272 | 1.0 | 2.0 | 0.00 | 0.00 | 0.00 | 84 | 1015.6 |
| 20260502090847 | 38 | 279 | 1.0 | 2.0 | 0.00 | 0.00 | 0.00 | 80 | 1015.7 |
| 20260502090344 | 38 | 289 | 1.0 | 2.0 | 0.00 | 0.00 | 0.00 | 84 | 1015.8 |
| 20260502071238 | 39 | 276 | 1.0 | 1.0 | 0.00 | 0.00 | 0.00 | 79 | 1015.5 |
| 20260502070737 | 40 | 265 | 1.0 | 1.0 | 0.00 | 0.00 | 0.00 | 81 | 1015.3 |
| 20260502070234 | 40 | 265 | 1.0 | 1.0 | 0.00 | 0.00 | 0.00 | 82 | 1015.3 |
| 20260502065733 | 40 | 293 | 2.0 | 2.0 | 0.00 | 0.00 | 0.00 | 80 | 1015.3 |
| 20260502065230 | 40 | 341 | 1.0 | 2.0 | 0.00 | 0.00 | 0.00 | 77 | 1015.4 |
| 20260502064729 | 41 | 281 | 1.0 | 2.0 | 0.00 | 0.00 | 0.00 | 72 | 1015.4 |
| 20260502064226 | 41 | 273 | 1.0 | 2.0 | 0.00 | 0.00 | 0.00 | 78 | 1015.3 |
| 20260502063723 | 41 | 248 | 1.0 | 2.0 | 0.00 | 0.00 | 0.00 | 76 | 1015.4 |
| 20260502063221 | 40 | 305 | 0.0 | 1.0 | 0.00 | 0.00 | 0.00 | 80 | 1015.3 |
| 20260502062718 | 40 | 307 | 0.0 | 2.0 | 0.00 | 0.00 | 0.00 | 77 | 1015.4 |
| 20260502062216 | 42 | 259 | 1.0 | 2.0 | 0.00 | 0.00 | 0.00 | 72 | 1015.4 |
| 20260502061714 | 43 | 269 | 1.0 | 2.0 | 0.00 | 0.00 | 0.00 | 71 | 1015.4 |
| 20260502061211 | 43 | 256 | 2.0 | 3.0 | 0.00 | 0.00 | 0.00 | 73 | 1015.4 |
| 20260502060706 | 43 | 287 | 0.0 | 2.0 | 0.00 | 0.00 | 0.00 | 71 | 1015.6 |
| 20260502060203 | 44 | 283 | 2.0 | 3.0 | 0.00 | 0.00 | 0.00 | 70 | 1015.5 |
| 20260502055700 | 44 | 265 | 1.0 | 2.0 | 0.00 | 0.00 | 0.00 | 68 | 1015.6 |
| 20260502055158 | 44 | 308 | 0.0 | 1.0 | 0.00 | 0.00 | 0.00 | 71 | 1015.7 |
| 20260502054657 | 44 | 305 | 1.0 | 2.0 | 0.00 | 0.00 | 0.00 | 68 | 1015.7 |
| 20260502054154 | 45 | 290 | 2.0 | 3.0 | 0.00 | 0.00 | 0.00 | 68 | 1015.5 |
| 20260502053651 | 45 | 355 | 1.0 | 2.0 | 0.00 | 0.00 | 0.00 | 70 | 1015.5 |
| 20260502053148 | 45 | 269 | 0.0 | 2.0 | 0.00 | 0.00 | 0.00 | 68 | 1015.8 |
| 20260502052646 | 45 | 315 | 1.0 | 3.0 | 0.00 | 0.00 | 0.00 | 69 | 1015.7 |
| 20260502052144 | 45 | 319 | 3.0 | 4.0 | 0.00 | 0.00 | 0.00 | 69 | 1015.7 |
| 20260502051642 | 46 | 275 | 2.0 | 3.0 | 0.00 | 0.00 | 0.00 | 68 | 1015.9 |
| 20260502051140 | 45 | 47 | 6.0 | 9.0 | 0.00 | 0.00 | 0.00 | 69 | 1015.8 |
| 20260502050636 | 45 | 332 | 1.0 | 6.0 | 0.00 | 0.00 | 0.00 | 67 | 1015.9 |
| 20260502050133 | 45 | 283 | 2.0 | 3.0 | 0.00 | 0.00 | 0.00 | 70 | 1015.8 |
| 20260502045629 | 45 | 231 | 1.0 | 2.0 | 0.00 | 0.00 | 0.00 | 71 | 1015.6 |
| 20260502045127 | 45 | 255 | 2.0 | 2.0 | 0.00 | 0.00 | 0.00 | 71 | 1015.8 |
| 20260502044623 | 45 | 276 | 2.0 | 3.0 | 0.00 | 0.00 | 0.00 | 71 | 1015.9 |
| 20260502044120 | 46 | 313 | 3.0 | 4.0 | 0.00 | 0.00 | 0.00 | 70 | 1015.8 |
| 20260502043618 | 46 | 298 | 5.0 | 7.0 | 0.00 | 0.00 | 0.00 | 71 | 1015.8 |
| 20260502043115 | 46 | 269 | 2.0 | 3.0 | 0.00 | 0.00 | 0.00 | 72 | 1015.7 |
| 20260502042614 | 46 | 285 | 3.0 | 4.0 | 0.00 | 0.00 | 0.00 | 71 | 1015.7 |
| 20260502042112 | 46 | 320 | 2.0 | 3.0 | 0.00 | 0.00 | 0.00 | 70 | 1015.8 |
| 20260502041610 | 46 | 27 | 3.0 | 6.0 | 0.00 | 0.00 | 0.00 | 73 | 1015.8 |
| 20260502041107 | 46 | 52 | 3.0 | 7.0 | 0.00 | 0.00 | 0.00 | 72 | 1015.5 |
| 20260502040603 | 47 | 9 | 2.0 | 3.0 | 0.00 | 0.00 | 0.00 | 72 | 1015.6 |
| 20260502040101 | 46 | 356 | 1.0 | 2.0 | 0.00 | 0.00 | 0.00 | 74 | 1015.7 |
| 20260502035556 | 46 | 317 | 2.0 | 2.0 | 0.00 | 0.00 | 0.00 | 73 | 1015.6 |
| 20260502035054 | 46 | 14 | 4.0 | 4.0 | 0.00 | 0.00 | 0.00 | 72 | 1015.9 |
| 20260502034551 | 46 | 298 | 2.0 | 3.0 | 0.00 | 0.00 | 0.00 | 72 | 1015.8 |
| 20260502034050 | 46 | 279 | 0.0 | 1.0 | 0.00 | 0.00 | 0.00 | 71 | 1015.6 |
| 20260502033548 | 45 | 276 | 2.0 | 2.0 | 0.00 | 0.00 | 0.00 | 76 | 1015.6 |
| 20260502033045 | 46 | 313 | 1.0 | 2.0 | 0.00 | 0.00 | 0.00 | 73 | 1015.7 |
| 20260502032540 | 46 | 271 | 1.0 | 2.0 | 0.00 | 0.00 | 0.00 | 73 | 1015.7 |
| 20260502032037 | 45 | 277 | 0.0 | 2.0 | 0.00 | 0.00 | 0.00 | 75 | 1015.7 |
| 20260502031535 | 46 | 210 | 2.0 | 2.0 | 0.00 | 0.00 | 0.00 | 72 | 1015.6 |
| 20260502031033 | 46 | 274 | 2.0 | 2.0 | 0.00 | 0.00 | 0.00 | 72 | 1015.7 |
| 20260502030532 | 46 | 272 | 0.0 | 2.0 | 0.00 | 0.00 | 0.00 | 71 | 1015.4 |
| 20260502030029 | 46 | 6 | 1.0 | 3.0 | 0.00 | 0.00 | 0.00 | 69 | 1015.4 |
| 20260502025526 | 47 | 326 | 2.0 | 4.0 | 0.00 | 0.00 | 0.00 | 67 | 1015.2 |
| 20260502025024 | 47 | 4 | 3.0 | 3.0 | 0.00 | 0.00 | 0.00 | 68 | 1015.5 |
| 20260502024521 | 47 | 94 | 3.0 | 7.0 | 0.00 | 0.00 | 0.00 | 64 | 1015.5 |
| 20260502024020 | 46 | 28 | 2.0 | 2.0 | 0.00 | 0.00 | 0.00 | 66 | 1015.3 |
| 20260502023517 | 47 | 344 | 4.0 | 7.0 | 0.00 | 0.00 | 0.00 | 64 | 1015.3 |
| 20260502023014 | 47 | 56 | 4.0 | 7.0 | 0.00 | 0.00 | 0.00 | 66 | 1015.3 |
| 20260502022510 | 47 | 5 | 7.0 | 9.0 | 0.00 | 0.00 | 0.00 | 67 | 1015.0 |
| 20260502022008 | 47 | 342 | 3.0 | 4.0 | 0.00 | 0.00 | 0.00 | 67 | 1015.2 |
| 20260502021505 | 47 | 351 | 3.0 | 6.0 | 0.00 | 0.00 | 0.00 | 69 | 1015.0 |
| 20260502021002 | 48 | 23 | 7.0 | 9.0 | 0.00 | 0.00 | 0.00 | 68 | 1014.9 |
| 20260502020500 | 48 | 334 | 4.0 | 7.0 | 0.00 | 0.00 | 0.00 | 71 | 1014.5 |
| 20260502015956 | 49 | 37 | 5.0 | 9.0 | 0.00 | 0.00 | 0.00 | 69 | 1014.4 |
| 20260502015454 | 49 | 356 | 3.0 | 7.0 | 0.00 | 0.00 | 0.00 | 69 | 1014.5 |
| 20260502014950 | 49 | 23 | 3.0 | 4.0 | 0.00 | 0.00 | 0.00 | 70 | 1014.4 |
| 20260502014447 | 49 | 339 | 5.0 | 6.0 | 0.00 | 0.00 | 0.00 | 69 | 1014.9 |
| 20260502013944 | 49 | 35 | 2.0 | 4.0 | 0.00 | 0.00 | 0.00 | 73 | 1014.7 |
| 20260502013440 | 49 | 78 | 2.0 | 3.0 | 0.00 | 0.00 | 0.00 | 73 | 1014.6 |
| 20260502012936 | 50 | 214 | 0.0 | 4.0 | 0.00 | 0.00 | 0.00 | 71 | 1014.4 |
| 20260502012434 | 50 | 49 | 4.0 | 4.0 | 0.00 | 0.00 | 0.00 | 73 | 1014.6 |
| 20260502011931 | 50 | 68 | 3.0 | 8.0 | 0.00 | 0.00 | 0.00 | 72 | 1014.3 |
| 20260502011427 | 50 | 290 | 8.0 | 9.0 | 0.00 | 0.00 | 0.00 | 70 | 1014.3 |
| 20260502010924 | 51 | 354 | 4.0 | 6.0 | 0.00 | 0.00 | 0.00 | 69 | 1014.5 |
| 20260502010421 | 51 | 295 | 1.0 | 3.0 | 0.00 | 0.00 | 0.00 | 68 | 1014.2 |
| 20260502005917 | 51 | 264 | 2.0 | 3.0 | 0.00 | 0.00 | 0.00 | 68 | 1014.0 |
| 20260502005415 | 51 | 322 | 1.0 | 2.0 | 0.00 | 0.00 | 0.00 | 69 | 1013.9 |
| 20260502004914 | 51 | 52 | 2.0 | 2.0 | 0.00 | 0.00 | 0.00 | 68 | 1013.6 |
| 20260502004409 | 52 | 208 | 0.0 | 2.0 | 0.00 | 0.00 | 0.00 | 66 | 1013.5 |
| 20260502003906 | 52 | 80 | 2.0 | 3.0 | 0.00 | 0.00 | 0.00 | 66 | 1013.5 |
| 20260502003404 | 53 | 304 | 5.0 | 7.0 | 0.00 | 0.00 | 0.00 | 63 | 1013.6 |
| 20260502002859 | 53 | 308 | 4.0 | 4.0 | 0.00 | 0.00 | 0.00 | 65 | 1013.4 |
| 20260502002357 | 53 | 265 | 1.0 | 2.0 | 0.00 | 0.00 | 0.00 | 62 | 1013.0 |
| 20260502001854 | 53 | 346 | 3.0 | 3.0 | 0.00 | 0.00 | 0.00 | 64 | 1013.1 |
| 20260502001352 | 53 | 335 | 2.0 | 9.0 | 0.00 | 0.00 | 0.00 | 62 | 1012.8 |
| 20260502000849 | 54 | 5 | 3.0 | 3.0 | 0.00 | 0.00 | 0.00 | 59 | 1012.6 |
| 20260502000348 | 54 | 327 | 2.0 | 3.0 | 0.00 | 0.00 | 0.00 | 58 | 1012.8 |
| 20260501235843 | 55 | 313 | 2.0 | 4.0 | 0.00 | 0.00 | 0.00 | 54 | 1012.5 |
| 20260501235339 | 55 | 306 | 4.0 | 6.0 | 0.00 | 0.00 | 0.00 | 55 | 1012.3 |
| 20260501234834 | 55 | 280 | 2.0 | 6.0 | 0.00 | 0.00 | 0.00 | 53 | 1012.4 |
| 20260501234332 | 55 | 35 | 4.0 | 6.0 | 0.00 | 0.00 | 0.00 | 52 | 1012.2 |
| 20260501233830 | 56 | 314 | 0.0 | 3.0 | 0.00 | 0.00 | 0.00 | 50 | 1012.3 |
| 20260501233327 | 56 | 279 | 3.0 | 6.0 | 0.00 | 0.00 | 0.00 | 50 | 1012.0 |
| 20260501232823 | 56 | 317 | 1.0 | 3.0 | 0.00 | 0.00 | 0.00 | 51 | 1011.8 |
| 20260501232320 | 56 | 15 | 2.0 | 4.0 | 0.00 | 0.00 | 0.00 | 49 | 1011.9 |
| 20260501231818 | 56 | 318 | 0.0 | 4.0 | 0.00 | 0.00 | 0.00 | 49 | 1012.0 |
| 20260501231316 | 56 | 322 | 6.0 | 13.0 | 0.00 | 0.00 | 0.00 | 48 | 1012.0 |
| 20260501230814 | 57 | 32 | 6.0 | 8.0 | 0.00 | 0.00 | 0.00 | 48 | 1012.1 |
| 20260501230312 | 58 | 339 | 5.0 | 7.0 | 0.00 | 0.00 | 0.00 | 46 | 1012.3 |
| 20260501225809 | 59 | 258 | 4.0 | 4.0 | 0.00 | 0.00 | 0.00 | 43 | 1011.9 |
| 20260501225307 | 60 | 332 | 7.0 | 13.0 | 0.00 | 0.00 | 0.00 | 43 | 1011.9 |
| 20260501224803 | 60 | 38 | 10.0 | 15.0 | 0.00 | 0.00 | 0.00 | 40 | 1012.1 |
| 20260501224300 | 59 | 289 | 4.0 | 10.0 | 0.00 | 0.00 | 0.00 | 38 | 1012.0 |
| 20260501223756 | 59 | 304 | 4.0 | 9.0 | 0.00 | 0.00 | 0.00 | 36 | 1011.5 |
| 20260501223253 | 60 | 292 | 4.0 | 4.0 | 0.00 | 0.00 | 0.00 | 36 | 1011.5 |
| 20260501222749 | 60 | 292 | 0.0 | 1.0 | 0.00 | 0.00 | 0.00 | 37 | 1011.3 |
| 20260501222246 | 60 | 349 | 6.0 | 8.0 | 0.00 | 0.00 | 0.00 | 36 | 1011.2 |
| 20260501221743 | 61 | 275 | 3.0 | 6.0 | 0.00 | 0.00 | 0.00 | 35 | 1011.3 |
| 20260501221240 | 61 | 300 | 1.0 | 9.0 | 0.00 | 0.00 | 0.00 | 33 | 1011.4 |
| 20260501220738 | 61 | 309 | 6.0 | 7.0 | 0.00 | 0.00 | 0.00 | 34 | 1011.6 |
| 20260501220235 | 61 | 281 | 5.0 | 7.0 | 0.00 | 0.00 | 0.00 | 33 | 1011.5 |
| 20260501215732 | 62 | 270 | 9.0 | 13.0 | 0.00 | 0.00 | 0.00 | 31 | 1011.4 |
| 20260501215227 | 63 | 255 | 6.0 | 7.0 | 0.00 | 0.00 | 0.00 | 30 | 1011.4 |
| 20260501214722 | 64 | 27 | 5.0 | 7.0 | 0.00 | 0.00 | 0.00 | 30 | 1011.2 |
| 20260501214219 | 64 | 280 | 9.0 | 13.0 | 0.00 | 0.00 | 0.00 | 29 | 1011.2 |
| 20260501213715 | 63 | 15 | 6.0 | 8.0 | 0.00 | 0.00 | 0.00 | 29 | 1011.0 |
| 20260501213211 | 63 | 345 | 0.0 | 3.0 | 0.00 | 0.00 | 0.00 | 29 | 1011.1 |
| 20260501212708 | 63 | 227 | 2.0 | 6.0 | 0.00 | 0.00 | 0.00 | 26 | 1011.2 |
| 20260501212204 | 63 | 327 | 2.0 | 6.0 | 0.00 | 0.00 | 0.00 | 28 | 1011.2 |
| 20260501211701 | 64 | 266 | 7.0 | 16.0 | 0.00 | 0.00 | 0.00 | 31 | 1011.4 |
| 20260501211158 | 65 | 257 | 7.0 | 10.0 | 0.00 | 0.00 | 0.00 | 26 | 1011.1 |
| 20260501210655 | 63 | 269 | 4.0 | 13.0 | 0.00 | 0.00 | 0.00 | 27 | 1011.1 |
| 20260501210152 | 63 | 301 | 9.0 | 13.0 | 0.00 | 0.00 | 0.00 | 29 | 1011.1 |
| 20260501205648 | 64 | 165 | 2.0 | 11.0 | 0.00 | 0.00 | 0.00 | 31 | 1011.1 |
| 20260501205146 | 64 | 130 | 4.0 | 6.0 | 0.00 | 0.00 | 0.00 | 33 | 1011.1 |
| 20260501204642 | 63 | 5 | 0.0 | 1.0 | 0.00 | 0.00 | 0.00 | 30 | 1011.1 |
| 20260501204138 | 63 | 222 | 4.0 | 4.0 | 0.00 | 0.00 | 0.00 | 29 | 1010.9 |
| 20260501203635 | 62 | 245 | 3.0 | 3.0 | 0.00 | 0.00 | 0.00 | 33 | 1010.8 |
| 20260501203133 | 62 | 186 | 1.0 | 6.0 | 0.00 | 0.00 | 0.00 | 30 | 1010.9 |
| 20260501202629 | 63 | 270 | 9.0 | 13.0 | 0.00 | 0.00 | 0.00 | 31 | 1010.8 |
| 20260501202126 | 65 | 146 | 5.0 | 7.0 | 0.00 | 0.00 | 0.00 | 35 | 1011.2 |
| 20260501201623 | 64 | 132 | 5.0 | 8.0 | 0.00 | 0.00 | 0.00 | 33 | 1011.2 |
| 20260501201119 | 65 | 158 | 3.0 | 4.0 | 0.00 | 0.00 | 0.00 | 35 | 1011.3 |
| 20260501200617 | 64 | 225 | 1.0 | 9.0 | 0.00 | 0.00 | 0.00 | 37 | 1011.3 |
| 20260501200114 | 64 | 149 | 4.0 | 11.0 | 0.00 | 0.00 | 0.00 | 32 | 1011.1 |
| 20260501195612 | 64 | 146 | 5.0 | 6.0 | 0.00 | 0.00 | 0.00 | 33 | 1011.3 |
| 20260501195107 | 64 | 123 | 2.0 | 4.0 | 0.00 | 0.00 | 0.00 | 36 | 1011.3 |
| 20260501194602 | 63 | 147 | 4.0 | 8.0 | 0.00 | 0.00 | 0.00 | 36 | 1011.4 |
| 20260501194058 | 62 | 239 | 6.0 | 8.0 | 0.00 | 0.00 | 0.00 | 36 | 1011.8 |
| 20260501193556 | 65 | 181 | 2.0 | 7.0 | 0.00 | 0.00 | 0.00 | 33 | 1011.5 |
| 20260501193055 | 64 | 195 | 0.0 | 2.0 | 0.00 | 0.00 | 0.00 | 42 | 1011.5 |
| 20260501192551 | 64 | 190 | 3.0 | 14.0 | 0.00 | 0.00 | 0.00 | 38 | 1011.8 |
| 20260501192049 | 63 | 102 | 7.0 | 9.0 | 0.00 | 0.00 | 0.00 | 32 | 1012.1 |
| 20260501191545 | 62 | 208 | 2.0 | 10.0 | 0.00 | 0.00 | 0.00 | 37 | 1012.0 |
| 20260501191043 | 63 | 262 | 1.0 | 7.0 | 0.00 | 0.00 | 0.00 | 35 | 1012.1 |
| 20260501190538 | 63 | 136 | 5.0 | 11.0 | 0.00 | 0.00 | 0.00 | 31 | 1012.3 |
| 20260501190034 | 63 | 110 | 3.0 | 9.0 | 0.00 | 0.00 | 0.00 | 31 | 1012.4 |
| 20260501185530 | 62 | 261 | 3.0 | 8.0 | 0.00 | 0.00 | 0.00 | 42 | 1012.3 |
| 20260501185026 | 61 | 205 | 4.0 | 7.0 | 0.00 | 0.00 | 0.00 | 32 | 1012.4 |
| 20260501184523 | 62 | 179 | 10.0 | 13.0 | 0.00 | 0.00 | 0.00 | 35 | 1012.4 |
| 20260501184023 | 62 | 211 | 5.0 | 10.0 | 0.00 | 0.00 | 0.00 | 35 | 1012.5 |
| 20260501183520 | 62 | 188 | 1.0 | 3.0 | 0.00 | 0.00 | 0.00 | 34 | 1012.6 |
| 20260501183016 | 62 | 87 | 2.0 | 6.0 | 0.00 | 0.00 | 0.00 | 40 | 1012.7 |
| 20260501182513 | 61 | 217 | 6.0 | 8.0 | 0.00 | 0.00 | 0.00 | 35 | 1012.7 |
| 20260501182010 | 62 | 271 | 4.0 | 7.0 | 0.00 | 0.00 | 0.00 | 37 | 1012.8 |
| 20260501181507 | 62 | 242 | 2.0 | 2.0 | 0.00 | 0.00 | 0.00 | 41 | 1012.7 |
| 20260501181004 | 61 | 3 | 4.0 | 8.0 | 0.00 | 0.00 | 0.00 | 36 | 1012.8 |
| 20260501180502 | 61 | 343 | 3.0 | 14.0 | 0.00 | 0.00 | 0.00 | 40 | 1012.9 |
| 20260501175957 | 61 | 293 | 6.0 | 8.0 | 0.00 | 0.00 | 0.00 | 32 | 1012.9 |
| 20260501175455 | 61 | 265 | 3.0 | 6.0 | 0.00 | 0.00 | 0.00 | 41 | 1012.9 |
| 20260501174951 | 60 | 136 | 8.0 | 13.0 | 0.00 | 0.00 | 0.00 | 36 | 1012.9 |
| 20260501174449 | 60 | 141 | 6.0 | 11.0 | 0.00 | 0.00 | 0.00 | 35 | 1013.1 |
| 20260501173946 | 59 | 240 | 4.0 | 9.0 | 0.00 | 0.00 | 0.00 | 36 | 1013.4 |
| 20260501173444 | 60 | 229 | 2.0 | 4.0 | 0.00 | 0.00 | 0.00 | 46 | 1013.1 |
| 20260501172939 | 59 | 299 | 3.0 | 7.0 | 0.00 | 0.00 | 0.00 | 42 | 1013.4 |
| 20260501172435 | 61 | 170 | 1.0 | 2.0 | 0.00 | 0.00 | 0.00 | 45 | 1013.4 |
| 20260501171931 | 59 | 290 | 4.0 | 10.0 | 0.00 | 0.00 | 0.00 | 40 | 1013.5 |
| 20260501171427 | 59 | 168 | 6.0 | 8.0 | 0.00 | 0.00 | 0.00 | 41 | 1013.5 |
| 20260501170924 | 59 | 189 | 2.0 | 6.0 | 0.00 | 0.00 | 0.00 | 40 | 1013.6 |
| 20260501170421 | 58 | 207 | 0.0 | 9.0 | 0.00 | 0.00 | 0.00 | 43 | 1013.6 |
| 20260501165919 | 58 | 220 | 2.0 | 7.0 | 0.00 | 0.00 | 0.00 | 47 | 1013.8 |
| 20260501165416 | 58 | 191 | 5.0 | 9.0 | 0.00 | 0.00 | 0.00 | 47 | 1013.8 |
| 20260501164914 | 57 | 52 | 0.0 | 4.0 | 0.00 | 0.00 | 0.00 | 51 | 1014.1 |
| 20260501164411 | 57 | 139 | 1.0 | 6.0 | 0.00 | 0.00 | 0.00 | 46 | 1014.0 |
| 20260501163908 | 57 | 289 | 3.0 | 4.0 | 0.00 | 0.00 | 0.00 | 47 | 1013.9 |
| 20260501163404 | 59 | 231 | 1.0 | 2.0 | 0.00 | 0.00 | 0.00 | 50 | 1013.9 |
| 20260501162901 | 57 | 200 | 2.0 | 8.0 | 0.00 | 0.00 | 0.00 | 49 | 1014.1 |
| 20260501162357 | 56 | 249 | 1.0 | 2.0 | 0.00 | 0.00 | 0.00 | 46 | 1013.9 |
| 20260501161854 | 56 | 300 | 2.0 | 6.0 | 0.00 | 0.00 | 0.00 | 49 | 1014.1 |
| 20260501161351 | 56 | 318 | 4.0 | 7.0 | 0.00 | 0.00 | 0.00 | 53 | 1014.2 |
| 20260501160848 | 56 | 143 | 2.0 | 3.0 | 0.00 | 0.00 | 0.00 | 46 | 1014.3 |
| 20260501160344 | 56 | 257 | 4.0 | 6.0 | 0.00 | 0.00 | 0.00 | 45 | 1014.3 |
| 20260501155842 | 57 | 236 | 3.0 | 7.0 | 0.00 | 0.00 | 0.00 | 48 | 1014.4 |
| 20260501155338 | 55 | 223 | 0.0 | 6.0 | 0.00 | 0.00 | 0.00 | 49 | 1014.6 |
| 20260501154835 | 55 | 176 | 3.0 | 3.0 | 0.00 | 0.00 | 0.00 | 51 | 1014.5 |
| 20260501154333 | 55 | 305 | 2.0 | 4.0 | 0.00 | 0.00 | 0.00 | 46 | 1014.7 |
| 20260501153830 | 55 | 258 | 1.0 | 1.0 | 0.00 | 0.00 | 0.00 | 48 | 1015.0 |
| 20260501153327 | 54 | 6 | 2.0 | 6.0 | 0.00 | 0.00 | 0.00 | 51 | 1014.7 |
| 20260501152823 | 54 | 161 | 2.0 | 6.0 | 0.00 | 0.00 | 0.00 | 49 | 1014.7 |
| 20260501152320 | 54 | 84 | 1.0 | 8.0 | 0.00 | 0.00 | 0.00 | 51 | 1015.0 |
| 20260501151818 | 55 | 119 | 3.0 | 4.0 | 0.00 | 0.00 | 0.00 | 53 | 1015.3 |
| 20260501151314 | 54 | 158 | 4.0 | 4.0 | 0.00 | 0.00 | 0.00 | 53 | 1015.4 |
| 20260501150810 | 54 | 125 | 2.0 | 6.0 | 0.00 | 0.00 | 0.00 | 58 | 1015.4 |
| 20260501150307 | 53 | 103 | 1.0 | 6.0 | 0.00 | 0.00 | 0.00 | 51 | 1015.4 |
| 20260501145803 | 53 | 83 | 0.0 | 2.0 | 0.00 | 0.00 | 0.00 | 58 | 1015.6 |
| 20260501145300 | 52 | 126 | 1.0 | 4.0 | 0.00 | 0.00 | 0.00 | 52 | 1015.8 |
| 20260501144756 | 52 | 71 | 2.0 | 3.0 | 0.00 | 0.00 | 0.00 | 56 | 1015.8 |
| 20260501144252 | 52 | 198 | 3.0 | 4.0 | 0.00 | 0.00 | 0.00 | 56 | 1015.9 |
| 20260501143749 | 52 | 125 | 2.0 | 3.0 | 0.00 | 0.00 | 0.00 | 63 | 1015.8 |
| 20260501143246 | 50 | 172 | 3.0 | 3.0 | 0.00 | 0.00 | 0.00 | 60 | 1015.8 |
| 20260501142743 | 50 | 45 | 2.0 | 2.0 | 0.00 | 0.00 | 0.00 | 69 | 1015.9 |
| 20260501142239 | 51 | 54 | 1.0 | 2.0 | 0.00 | 0.00 | 0.00 | 70 | 1016.0 |
| 20260501141734 | 50 | 28 | 2.0 | 3.0 | 0.00 | 0.00 | 0.00 | 70 | 1015.8 |